Meteo Giornale » Osservazioni meteo Repubblica Ceca » Praha-Ruzyne

ore: 13:30 - Osservazioni Meteo Praha-Ruzyne
Lat. 50° 6' N Lon. 14° 15' E Alt. 365 metri s.l.m.

nuvoloso Europe/Prague

20 °C

Nuvoloso

Temp. 24 Ore

13 °C

20 °C

Nord

11.1 Km/h

Dew point 9 °C

Umidità 49 %

Visibilità  10 Km

Il sole sorge alle ore 06:00

Il sole tramonta alle ore 20:12

Data e Ora Cielo e Fenomeni T °C DP °C Um. % Pres. hPa Vis. km Vento km/h
Oggi h: 13:30 nuvoloso Nuvoloso 20 9 49 1028 10 N 11.1
Oggi h: 13:00 nuvoloso Nuvoloso 19 9 52 1028 10 N 7.4
Oggi h: 12:30 nuvoloso Nuvoloso 18 10 59 1028 10 N/NO 11.1
Oggi h: 12:00 nuvoloso Nuvoloso 19 11 59 1029 10 N 7.4
Oggi h: 11:30 poco_nuvoloso Poco Nuvoloso 18 12 67 1029 10 O 7.4
Oggi h: 11:00 poco_nuvoloso Poco Nuvoloso 17 12 72 1029 10 O 11.1
Oggi h: 10:30 poco_nuvoloso Poco Nuvoloso 17 12 72 1029 10 O/NO 11.1
Oggi h: 10:00 sereno Sereno 16 12 77 1029 10 O/NO 9.3
Oggi h: 09:30 sereno Sereno 15 13 87 1029 10 O 11.1
Oggi h: 09:00 sereno Sereno 15 13 87 1028 10 O 11.1
Oggi h: 08:30 sereno Sereno 15 13 87 1028 10 O 11.1
Oggi h: 08:00 sereno Sereno 14 12 87 1028 10 O 11.1
Oggi h: 07:30 sereno Sereno 14 12 87 1028 10 O/SO 11.1
Oggi h: 07:00 sereno Sereno 14 12 87 1028 10 O 13
Oggi h: 06:30 sereno Sereno 13 12 93 1027 10 O 9.3
Oggi h: 06:00 sereno Sereno 13 12 93 1027 10 O/SO 9.3
Oggi h: 05:30 sereno Sereno 13 12 93 1027 10 O 11.1
Oggi h: 05:00 coperto_pioggia Pioggia Debole 13 12 93 1026 10 O 13
Oggi h: 04:30 coperto_pioggia Pioggia Debole 13 12 93 1026 10 O 13
Oggi h: 04:00 coperto_pioggia Pioggia Debole 13 12 93 1026 10 O 13
Oggi h: 03:52 coperto_pioggia Pioggia Debole 13 12 93 1026 10 O 13
Oggi h: 03:30 coperto_pioggia Pioggia 13 12 93 1026 10 O 14.8
Oggi h: 03:00 coperto_pioggia Pioggia Debole 14 12 87 1026 10 O 16.7
Oggi h: 02:30 coperto_pioggia Pioggia Debole 14 12 87 1025 10 O/NO 16.7
Oggi h: 02:00 coperto_pioggia Pioggia Debole 14 12 87 1024 10 NO 18.5
Oggi h: 01:30 coperto_pioggia Pioggia Debole 14 12 87 1024 10 O/NO 20.3
Oggi h: 01:00 coperto_pioggia Pioggia Debole 14 12 87 1024 10 O/NO 24
Oggi h: 00:30 coperto_pioggia Pioggia Debole 14 13 93 1024 10 O/NO 24
Ieri h: 23:30 coperto Coperto 15 13 87 1023 10 NO 24
Ieri h: 23:00 coperto_pioggia Pioggia Debole 16 13 82 1022 10 NO 20.3
Ieri h: 22:45 coperto_pioggia Pioggia Debole 16 13 82 1023 10 O/NO 16.7
Ieri h: 22:30 molto_nuvoloso Molto Nuvoloso 16 14 87 1022 10 NO 18.5
Ieri h: 22:00 nuvoloso Nuvoloso 15 14 93 1022 10 NO 20.3
Ieri h: 21:36 coperto_pioggia Pioggia Debole 15 14 93 1022 10 NO 22.2
Ieri h: 21:30 coperto_pioggia Pioggia 15 14 93 1021 6 N 20.3
Ieri h: 21:15 coperto_pioggia Pioggia 16 15 93 1022 6 O/NO 24
Ieri h: 21:00 coperto_pioggia Pioggia 16 15 93 1021 5 NO 24
Ieri h: 20:47 coperto_pioggia Pioggia 17 16 93 1021 6 NO 18.5
Ieri h: 20:30 coperto_pioggia Pioggia Debole 17 16 93 1021 7 NO 18.5
Ieri h: 20:09 coperto_pioggia Pioggia 17 17 100 1021 6 NO 14.8
Ieri h: 20:03 coperto_pioggia Pioggia 17 17 100 1021 5 NO 13
Ieri h: 20:00 coperto_pioggia Pioggia 18 17 93 1021 4 NO 11.1
Ieri h: 19:55 coperto_pioggia Pioggia Debole Foschia 18 17 93 1021 4 NO 11.1
Ieri h: 19:30 coperto_pioggia Pioggia Debole Foschia 18 17 93 1021 5 N/NO 9.3
Ieri h: 19:19 coperto_pioggia Pioggia Foschia 18 17 93 1021 5 N/NO 9.3
Ieri h: 19:00 coperto_pioggia Pioggia Debole 19 18 93 1021 6 NO 11.1
Ieri h: 18:42 coperto_pioggia Pioggia Debole 19 18 93 1021 10 NO 7.4
Ieri h: 18:30 coperto_pioggia Pioggia Debole 19 17 88 1021 10 N/NO 9.3
Ieri h: 18:21 coperto_pioggia Pioggia Debole 19 17 88 1021 10 N/NO 9.3
Ieri h: 18:00 poco_nuvoloso Poco Nuvoloso 19 17 88 1020 10 N 5.5
Ieri h: 17:30 coperto_pioggia Pioggia Debole 19 17 88 1021 10 NO 9.3
Ieri h: 17:00 coperto_pioggia Pioggia Debole 19 17 88 1021 10 NO 11.1
Ieri h: 16:30 coperto_pioggia Pioggia Debole 19 17 88 1021 10 O/NO 11.1
Ieri h: 16:00 coperto_pioggia Pioggia Debole 19 18 93 1021 10 O/NO 9.3
Ieri h: 15:30 coperto_pioggia Pioggia Debole 19 17 88 1021 10 O 9.3
Ieri h: 15:00 nuvoloso_piovaschi Debole Rovescio di Pioggia 20 18 88 1021 10 NO 11.1